Regional Weather Roundup
Issued by NWS

Home | Current Version | Previous Version | Graphics & Text | Print | Product List | Glossary On
Versions: 1 2 3 4 5 6 7 8 9 10 11 12 13 14 15 16 17 18 19 20 21 22 23 24 25 26 27 28 29 30 31 32 33 34 35 36 37 38 39 40 41 42 43 44 45 46 47 48 49 50
000
ASUS43 KOAX 280102
RWRNE

WEATHER ROUNDUP FOR NEBRASKA
NATIONAL WEATHER SERVICE OMAHA NE
800 PM CDT FRI MAR 27 2015

NOTES: SATELLITE DATA IS BEING USED TO AUGMENT CLOUD COVER ABOVE
       12000 FEET.
       "FAIR" INDICATES FEW OR NO CLOUDS BELOW 12,000 FEET WITH NO
       SIGNIFICANT WEATHER AND/OR OBSTRUCTIONS TO VISIBILITY.

  * THESE STATIONS DO NOT REPORT WEATHER SUCH AS RAIN...SNOW OR FOG.

NEZ001>004-019>022-054>056-280200-
NEBRASKA PANHANDLE

CITY           SKY/WX    TMP DP  RH WIND       PRES   REMARKS
SCOTTSBLUFF    MOCLDY    67  32  27 N14       29.98R
ALLIANCE       CLOUDY    60  33  36 NW8       29.96S
CHADRON        PTCLDY    59  36  42 N7        29.95R
KIMBALL        PTCLDY    61  28  29 NW8       30.02S
SIDNEY         PTCLDY    61  32  33 N8        30.01R
$$

NEZ057>060-069>072-079>082-280200-
SOUTHWEST NEBRASKA

CITY           SKY/WX    TMP DP  RH WIND       PRES   REMARKS
NORTH PLATTE   CLOUDY    58  36  43 NE10      29.94R
IMPERIAL       PTCLDY    65  35  33 N10       29.95S
LEXINGTON      CLOUDY    53  36  51 SE10      29.96S
MCCOOK         MOCLDY    66  37  34 SW5       29.92S
$$

NEZ005>010-023>029-035>040-094-280200-
NORTH CENTRAL NEBRASKA

CITY           SKY/WX    TMP DP  RH WIND       PRES   REMARKS
VALENTINE      PTCLDY    57  33  40 NW5       29.91S
AINSWORTH      MOCLDY    56  35  43 NW8       29.91R
BROKEN BOW     CLOUDY    51  37  58 S5        29.94F
ORD            MOCLDY    44  27  51 SE7       29.96S
$$

NEZ041-046>049-061>064-073>077-083>087-280200-
SOUTH CENTRAL NEBRASKA

CITY           SKY/WX    TMP DP  RH WIND       PRES   REMARKS
GRAND ISLAND   MOCLDY    40  26  57 SE9       30.02F WCI  34
AURORA         MOCLDY    38  25  60 SE9       30.02F WCI  31
HASTINGS       CLOUDY    42  25  50 S9        30.00S
HEBRON         MOCLDY    38  24  56 SE5       30.06F WCI  34
HOLDREGE       CLOUDY    51  33  49 S12       29.97F
KEARNEY *      CLOUDY    46  28  49 S10       29.98F
YORK           MOCLDY    36  27  69 SE8       30.05F WCI  29
$$

NEZ011>018-030>034-042>045-280200-
NORTHEAST NEBRASKA

CITY           SKY/WX    TMP DP  RH WIND       PRES   REMARKS
NORFOLK        CLOUDY    34  28  79 SE13      30.04F WCI  25
ALBION         MOCLDY    35  26  70 SE10      30.01F WCI  27
BLAIR          CLOUDY    36  21  54 S5        30.11F WCI  32
COLUMBUS *     CLOUDY    36  21  55 SE10      30.08F WCI  28
FREMONT        CLOUDY    37  24  60 SE6       30.11F WCI  32
TEKAMAH        CLOUDY    36  21  54 SE7       30.11F WCI  30
WAYNE          CLOUDY    34  27  75 S10       30.07F WCI  26
$$

NEZ050>053-065>068-078-088>093-280200-
SOUTHEAST NEBRASKA

CITY           SKY/WX    TMP DP  RH WIND       PRES   REMARKS
LINCOLN        CLOUDY    38  23  55 SE9       30.12S WCI  31
OMAHA EPPLEY   CLOUDY    38  15  39 CALM      30.13F
BEATRICE       CLOUDY    38  24  56 SE6       30.09F WCI  34
FALLS CITY     CLOUDY    38  20  48 CALM      30.14F
NEBRASKA CITY  CLOUDY    37  19  49 CALM      30.13F
PLATTSMOUTH    CLOUDY    36  16  45 CALM      30.13F
$$

NEZ044-045-051>053-067-280200-
OMAHA AREA

CITY           SKY/WX    TMP DP  RH WIND       PRES   REMARKS
OMAHA EPPLEY   CLOUDY    38  15  39 CALM      30.13F
BLAIR          CLOUDY    36  21  54 S5        30.11F WCI  32
FREMONT        CLOUDY    37  24  60 SE6       30.11F WCI  32
MILLARD        CLOUDY    37  20  50 SE3       30.13F
OFFUTT AFB     CLOUDY    37  16  42 SW5       30.12F WCI  34
PLATTSMOUTH    CLOUDY    36  16  45 CALM      30.13F
WAHOO          CLOUDY    36  25  66 SE7       30.10F WCI  30
$$


USA.gov is the U.S. government's official web portal to all federal, state and local government web resources and services.